Regional Weather Roundup
Issued by NWS

Home | Current Version | Previous Version | Graphics & Text | Print | Product List | Glossary On
Versions: 1 2 3 4 5 6 7 8 9 10 11 12 13 14 15 16 17 18 19 20 21 22 23 24 25 26 27 28 29 30 31 32 33 34 35 36 37 38 39 40 41 42 43 44 45 46 47 48 49 50
000
ASUS43 KDMX 211007
RWRIA

WEATHER ROUNDUP FOR IOWA
NATIONAL WEATHER SERVICE DES MOINES IA
400 AM CST SUN DEC 21 2014

NOTE: "FAIR" INDICATES FEW OR NO CLOUDS BELOW 12,000 FEET WITH NO
SIGNIFICANT WEATHER AND/OR OBSTRUCTIONS TO VISIBILITY.

* - THESE STATIONS ARE NOT NWS STATIONS...THUS NOT UNDER NWS
QUALITY CONTROL.  THEY ALSO DO NOT REPORT WEATHER SUCH
AS PRECIPITATION OR FOG.

IAZ001>003-012>014-020>022-031>034-043>046-211100-
   NORTHWEST IOWA

CITY           SKY/WX    TMP DP  RH WIND       PRES   REMARKS
CARROLL *      CLOUDY    37  37 100 S16       29.94F FOG     WCI  28
CHEROKEE *     CLOUDY    32  32 100 S8        29.91F FOG     WCI  25
DENISON *      CLOUDY    37  37 100 S14G20    29.91F FOG     WCI  29
LE MARS *      MIX PCPN  34  34 100 SE10      29.89F VSB 1/2 WCI  26
ORANGE CITY *  FOG       34  32  93 S7        29.87F VSB 0   WCI  28
SHELDON *      FOG       32  32 100 S12       29.87F VSB 1/2 WCI  23
SIOUX CITY     FOG       34  33  96 SE7       29.90F VSB 1/2 WCI  28
SPENCER        FOG       32  31  96 S8        29.91F VSB 1/2 WCI  25
STORM LAKE *   FOG       32  32 100 S10       29.92F VSB 0   WCI  24
$$

IAZ055>058-069>071-079>083-090>094-211100-
   SOUTHWEST IOWA

CITY           SKY/WX    TMP DP  RH WIND       PRES   REMARKS
ATLANTIC *     CLOUDY    37  36  93 S15       29.97F WCI  28
AUDUBON *      MOCLDY    37  32  81 S12G17    29.96F HAZE    WCI  30
CLARINDA *     CLOUDY    36  36 100 S12       30.03F WCI  27
COUNCIL BLFS * CLOUDY    37  37 100 S13G23    29.94F WCI  29
CRESTON *      CLOUDY    36  36 100 S15       30.02F FOG     WCI  26
HARLAN  *      CLOUDY    37  37 100 S13       29.98F FOG     WCI  29
LAMONI         CLOUDY    35  34  96 S14       30.04F WCI  26
RED OAK *      CLOUDY    37  37 100 S14       29.99F WCI  29
SHENANDOAH *   CLOUDY    37  36  93 S15       30.00F FOG     WCI  28
$$

IAZ047>049-059>061-072>074-084-211100-
   CENTRAL IOWA

CITY           SKY/WX    TMP DP  RH WIND       PRES   REMARKS
AMES           CLOUDY    36  35  96 S10       30.00F FOG     WCI  28
ANKENY *       CLOUDY    37  36  93 S14       30.02F WCI  29
CHARITON *     CLOUDY    37  36  93 S13G20    30.05F WCI  29
DES MOINES     CLOUDY    39  35  86 S12       30.03F WCI  32
GRINNELL*      CLOUDY    36  36 100 S9        30.05F FOG     WCI  29
KNOXVILLE *    CLOUDY    37  36  93 S13       30.04F WCI  29
MARSHALLTOWN   CLOUDY    35  35 100 S10       30.02F FOG     WCI  27
PELLA *        CLOUDY    37  36  93 S13       30.07F FOG     WCI  29
PERRY *        CLOUDY    37  37 100 S14       29.99F FOG     WCI  29
$$

IAZ004>006-015-016-023>025-035-036-211100-
   NORTH CENTRAL IOWA

CITY           SKY/WX    TMP DP  RH WIND       PRES   REMARKS
ALGONA *       FOG       34  34 100 SE12      29.95F VSB 0   WCI  25
CLARION *      FOG       34  34 100 S16       29.97F VSB 1/4 WCI  23
ESTHERVILLE    FOG       31  31 100 S10       29.91F VSB 1/4 WCI  22
FORT DODGE *   CLOUDY    36  34  93 S9G16     29.97F WCI  29
MASON CITY     FOG       32  32 100 SE15      29.99F VSB 1/2 WCI  22
FOREST CITY *  FOG       34  32  93 SE10      29.97F VSB 1/2 WCI  26
IOWA FALLS *   FOG       34  34 100 SE12      30.01F VSB 1/4 WCI  25
$$

IAZ007>011-017>019-026>030-037>042-050>054-066-211100-
   NORTHEAST IOWA

CITY           SKY/WX    TMP DP  RH WIND       PRES   REMARKS
CEDAR RAPIDS   CLOUDY    34  34 100 S10       30.08F FOG     WCI  26
CHARLES CITY * FOG       32  32 100 SE14      30.02F VSB 1/4 WCI  22
CLINTON *      PTCLDY    34  30  86 SE6       30.17F WCI  29
DECORAH *      FOG       32  32 100 SE8       30.05F VSB 1/2 WCI  25
DUBUQUE        FOG       32  31  96 S12       30.11F VSB 1/2 WCI  23
MONTICELLO *   CLOUDY    34  34 100 SE8G15    30.11F FOG     WCI  27
OELWEIN *      FOG       32  32 100 SE12      30.06F VSB 0   WCI  23
WATERLOO       FOG       34  34 100 S9        30.04F VSB 1/2 WCI  27
$$

IAZ064-065-067-068-078-211100-
   EAST CENTRAL IOWA

CITY           SKY/WX    TMP DP  RH WIND       PRES   REMARKS
DAVENPORT      CLOUDY    34  31  88 S13       30.15F FOG     WCI  25
IOWA CITY      CLOUDY    35  34  96 SE8       30.13F FOG     WCI  29
MT. PLEASANT * CLOUDY    36  36 100 S10       30.13F FOG     WCI  28
MUSCATINE *    CLOUDY    36  34  93 SE8       30.14F FOG     WCI  29
QUAD CITIES    CLOUDY    35  32  88 S3        30.15F
$$

IAZ062-063-075>077-085>089-095>099-211100-
   SOUTHEAST IOWA

CITY           SKY/WX    TMP DP  RH WIND       PRES   REMARKS
BURLINGTON     CLOUDY    37  35  92 S7        30.15F WCI  32
FAIRFIELD *    CLOUDY    37  34  87 S8        30.11F WCI  31
FORT MADISON * CLOUDY    37  37 100 S5        30.15F FOG     WCI  34
KEOKUK *       CLOUDY    37  36  93 S6        30.14F WCI  33
OSKALOOSA *    CLOUDY    36  34  93 S12       30.08F FOG     WCI  27
CENTERVILLE *  MOCLDY    37  37 100 S9        30.10F WCI  31
OTTUMWA        CLOUDY    37  34  89 S13       30.08F WCI  29
WASHINGTON *   CLOUDY    37  37 100 S9        30.11F FOG     WCI  31
$$

ABBREVIATIONS USED IN REMARKS
   TC - TEMPERATURES IN CELSIUS
  WCI - WIND CHILL INDEX
   HX - HEAT INDEX
  VSB - VISIBILITY
$$



USA.gov is the U.S. government's official web portal to all federal, state and local government web resources and services.